Dewpoint
54 55 56 56 57 57 57 57 56 55 54 53 53 53 54 54 48 30 16 21 33 50 51 38 30 29 32 32 35 33 26 20 19 22 22 27 27 28 29 28 31 35 31 37 39
55 56 56 57 57 57 57 56 56 54 53 52 52 53 53 52 39 28 23 34 47 53 30 26 25 26 26 29 28 30 27 23 24 24 23 26 27 26 28 28 29 31 37 40 39
56 56 57 57 57 57 57 56 56 55 54 54 53 52 53 49 27 21 28 43 46 50 33 29 26 25 23 23 23 28 23 27 26 26 25 25 26 27 27 25 27 26 31 39 38
56 56 57 57 57 57 57 56 56 55 55 54 53 53 52 36 16 21 32 38 41 43 32 28 24 24 23 22 23 19 24 25 23 28 26 24 24 23 27 24 26 29 32 38 38
57 57 57 57 57 57 57 56 56 55 55 54 53 53 37 24 21 24 29 31 32 31 27 26 23 24 22 21 22 22 22 24 24 26 27 24 22 21 23 26 28 28 34 36 38
57 57 57 57 57 57 57 56 56 55 54 53 52 51 32 24 25 27 26 28 29 25 25 26 23 24 22 21 21 22 24 24 24 25 27 26 26 28 26 29 28 28 30 35 38
57 57 57 56 57 57 57 56 56 55 53 52 52 39 24 21 25 27 27 28 29 27 24 27 28 26 24 22 24 21 18 19 20 23 25 29 23 25 28 29 28 28 30 35 38
56 56 57 57 56 56 55 55 55 53 52 51 51 30 22 27 26 27 27 27 28 26 24 25 27 26 25 24 24 20 19 15 19 26 26 24 14 19 23 27 26 29 30 33 37
56 56 56 56 56 56 55 54 54 54 53 51 32 28 22 26 23 27 25 25 26 27 27 29 28 25 25 21 18 18 14 14 15 25 25 24 17 20 24 26 24 26 30 32 34
56 56 56 56 56 55 53 53 48 41 41 35 25 19 21 22 25 27 27 25 24 26 29 26 26 21 22 19 13 12 12 14 14 18 24 22 21 22 24 24 24 25 26 30 33
56 55 55 56 55 52 40 33 29 29 28 19 21 19 27 27 28 27 26 25 27 26 22 26 23 19 17 20 18 16 15 15 16 18 20 19 20 20 22 23 24 25 26 27 31
54 55 55 56 54 46 38 32 36 37 25 28 29 27 27 27 25 28 27 23 24 20 25 24 21 22 21 23 20 18 17 17 18 20 21 21 20 22 22 23 24 25 26 28 32
53 54 55 55 52 39 38 39 44 43 28 25 29 27 27 27 25 26 27 25 23 21 24 21 20 23 21 19 19 18 18 18 18 21 22 22 21 22 23 23 23 25 27 30 32
53 54 55 54 39 41 34 43 44 42 27 24 27 28 28 27 25 29 26 24 23 20 22 22 23 22 20 20 19 18 20 19 19 19 18 22 17 20 22 23 22 21 25 29 33
52 53 54 51 40 36 40 45 46 37 9 23 28 32 30 27 28 29 27 24 22 22 22 21 22 22 21 21 20 20 22 21 20 20 21 22 19 20 23 21 20 21 23 30 32
51 52 54 46 43 44 46 48 43 24 11 24 30 29 28 30 29 29 26 27 27 24 24 23 25 23 22 23 21 24 24 26 26 24 21 22 21 21 21 21 21 23 28 33 36
50 52 52 49 40 46 48 42 23 17 22 22 27 29 28 27 29 29 27 25 24 20 21 24 25 24 23 21 21 23 22 20 18 20 18 23 22 21 23 23 23 24 31 34 35
50 52 48 51 47 48 44 34 13 17 18 30 29 29 27 28 28 29 27 26 27 24 22 20 19 25 24 23 22 21 22 21 14 15 14 23 20 20 24 27 30 30 29 29 30
51 47 46 50 49 46 36 24 5 18 24 29 28 27 26 28 28 27 27 26 25 26 23 21 21 26 23 23 24 23 21 24 22 23 21 21 22 24 26 26 28 28 27 27 28
48 45 43 49 48 40 33 27 23 28 32 28 26 26 24 26 25 26 25 25 26 27 26 24 21 24 22 21 22 24 24 22 23 19 17 19 20 20 23 24 26 26 26 26 27
46 40 42 48 44 37 30 29 29 31 32 28 26 24 26 25 27 25 23 25 26 27 27 26 25 22 21 21 22 22 23 23 23 23 19 17 15 25 25 25 25 26 25 25 26
44 35 44 45 38 34 30 30 33 32 30 30 29 29 27 27 25 25 24 24 28 27 25 26 25 22 22 24 24 23 22 23 21 20 25 23 21 30 31 28 27 24 24 26 26
39 41 45 44 35 35 34 33 34 34 32 30 29 29 29 28 27 28 27 29 28 27 26 26 24 22 22 25 28 24 24 23 24 27 22 22 23 29 29 26 24 23 25 26 26
40 37 39 42 39 37 36 35 36 38 37 34 32 32 30 30 29 28 28 29 30 27 28 27 26 23 18 18 26 25 25 25 24 23 26 25 25 27 30 28 23 24 26 27 26
40 36 37 36 36 34 36 37 35 34 38 38 35 32 31 32 33 32 31 31 31 31 29 29 30 31 31 32 31 30 29 28 26 26 25 28 29 30 30 30 27 25 27 26 24
33 34 31 24 29 24 28 31 31 29 28 32 29 26 26 29 31 30 31 33 34 38 36 35 32 35 32 34 33 31 31 31 30 30 30 30 29 31 33 32 28 27 26 24 22
33 32 31 26 28 26 26 27 24 21 23 26 20 24 24 25 32 30 32 33 35 35 35 34 33 31 28 31 32 29 32 31 31 31 30 29 30 30 30 29 28 26 24 21 19
Wind_Speed
9 9 9 9 9 9 9 9 9 8 8 8 8 9 10 11 12 2 4 4 3 4 1 1 3 3 3 3 3 3 1 5 5 6 3 5 7 3 1 4 5 8 4 2 13
10 10 9 9 8 8 8 8 8 8 7 7 7 8 9 9 2 6 3 3 4 3 2 6 4 3 2 2 1 3 4 6 5 6 4 5 7 5 4 7 8 8 5 6 17
11 10 10 9 8 7 7 7 7 7 7 7 7 8 9 4 2 4 3 2 2 4 3 3 4 3 2 1 3 3 5 3 4 6 4 4 5 5 7 12 15 17 16 13 18
13 12 11 10 9 7 6 6 6 6 7 7 7 8 8 0 2 2 1 1 1 7 5 4 3 3 3 5 4 3 6 5 3 5 5 5 2 5 15 16 4 18 8 17 21
15 13 11 10 9 8 7 7 6 5 6 6 7 8 2 1 7 3 1 2 4 5 4 5 5 4 4 4 3 6 4 5 4 5 7 3 11 9 19 22 13 4 10 19 21
20 18 15 13 11 10 9 8 6 6 6 6 5 3 1 6 3 2 1 3 3 3 3 5 5 6 3 4 6 4 5 7 5 6 5 6 5 1 7 3 15 15 17 17 21
23 21 18 15 12 11 9 8 7 7 7 5 3 1 3 12 3 2 2 2 2 3 3 2 3 4 5 2 1 0 6 6 9 5 5 3 11 16 16 1 6 13 15 16 20
24 23 20 17 14 11 9 8 8 7 7 4 1 1 7 1 2 3 2 2 3 3 3 4 3 4 1 2 3 1 1 3 2 6 2 3 13 7 3 9 17 14 14 18 20
26 24 23 20 15 12 10 8 8 6 4 2 1 2 7 2 3 3 3 4 3 3 3 4 3 2 2 2 3 2 5 6 6 8 3 7 13 10 1 8 18 17 17 18 18
27 26 24 22 16 11 8 2 4 3 3 2 1 3 4 4 3 4 2 5 3 5 2 1 3 2 2 6 8 5 5 5 8 3 6 9 29 30 19 20 27 22 22 20 20
29 28 27 23 17 10 2 1 2 1 3 9 6 4 1 2 2 3 3 5 4 2 5 1 5 16 16 15 4 3 6 10 7 4 5 15 24 30 25 18 22 25 21 20 21
30 30 28 24 18 5 3 4 2 1 9 9 9 6 4 2 3 5 5 6 5 8 5 1 16 10 4 6 6 5 7 12 9 3 5 12 26 29 35 17 14 12 11 14 11
32 30 29 26 12 4 5 4 1 2 4 5 5 4 3 6 5 6 9 5 5 7 10 11 2 5 5 5 7 7 10 9 9 6 3 10 15 9 6 4 4 8 7 5 16
31 30 30 29 2 2 3 1 1 1 4 4 3 2 3 3 4 2 4 3 3 7 6 9 2 7 7 9 10 13 8 6 4 3 7 5 15 6 12 16 6 7 6 5 10
32 30 28 10 3 2 2 1 1 1 7 3 3 1 2 4 3 3 0 2 7 7 5 7 7 8 10 10 14 7 3 4 2 4 4 4 8 9 4 8 1 6 3 1 5
32 29 24 3 2 1 2 1 1 1 9 3 3 3 3 4 2 3 2 2 1 3 5 9 1 5 7 4 9 11 4 4 4 2 9 9 13 6 8 7 5 1 3 6 5
33 29 9 2 3 3 2 1 3 6 2 3 3 4 4 6 5 8 6 7 8 4 8 3 7 3 5 5 2 5 5 5 5 5 12 3 8 17 8 6 5 4 2 6 7
35 22 4 2 3 2 1 1 9 5 7 2 1 2 6 6 5 4 3 8 11 4 3 8 12 12 9 8 9 12 9 10 10 8 7 2 12 9 3 2 4 6 6 7 9
28 7 2 3 3 2 3 7 8 7 2 2 2 5 4 3 4 4 8 8 8 20 14 8 9 2 5 3 3 6 12 3 4 2 9 9 11 11 5 4 4 6 7 6 7
12 9 3 5 4 2 2 7 6 4 2 1 5 6 8 4 5 6 6 5 5 14 2 3 11 4 5 4 1 5 6 4 3 7 15 13 13 18 11 20 13 13 11 8 7
4 8 1 6 2 1 7 8 7 6 4 5 6 9 8 6 9 8 7 5 7 5 7 6 8 7 6 12 16 7 7 5 4 7 17 25 17 7 8 12 24 18 14 12 10
6 6 2 4 3 1 5 4 4 4 1 6 4 9 12 11 14 16 19 16 11 10 9 10 6 21 22 4 5 9 18 20 17 14 13 10 40 2 6 7 17 20 16 14 12
6 6 4 1 5 5 4 5 5 8 8 3 4 5 1 5 9 15 16 9 12 13 8 10 8 17 8 1 1 8 8 11 5 4 37 27 29 2 2 5 10 22 19 18 17
5 6 6 4 2 4 6 9 5 4 7 5 6 9 10 18 16 12 7 5 7 11 7 11 13 18 34 13 5 7 12 18 24 24 26 34 37 35 14 17 15 18 20 18 16
4 4 6 7 10 18 15 9 15 11 12 12 4 18 13 7 6 13 13 8 6 4 5 5 17 14 25 27 19 28 30 32 32 32 32 37 30 44 26 27 28 20 19 19 17
5 7 10 11 14 16 8 4 10 8 10 8 10 25 21 11 18 14 14 10 9 5 23 12 20 25 34 39 34 37 38 37 35 37 36 41 44 42 19 6 19 25 24 20 18
6 4 2 6 8 8 6 8 11 13 7 8 16 18 16 17 19 25 25 23 27 27 24 10 9 15 36 26 22 26 35 37 35 32 25 39 40 14 4 6 9 16 16 18 18
Wind_Direction
339 331 323 314 304 299 298 299 301 302 303 309 319 325 328 331 317 163 241 211 223 281 234 285 110 91 80 94 86 118 179 242 239 185 238 167 196 188 168 185 206 202 198 148 141
344 334 323 313 305 304 304 301 299 306 308 310 322 331 340 340 319 252 215 228 251 235 147 148 145 111 116 138 117 166 194 227 208 201 222 203 204 197 203 221 236 232 202 138 155
348 337 325 315 309 308 301 299 303 307 307 316 327 340 338 328 310 239 167 280 261 175 139 102 112 120 173 160 197 177 229 218 237 218 197 214 233 212 216 246 225 226 216 176 177
354 343 331 321 312 303 303 307 298 296 305 311 326 340 338 99 275 194 243 318 127 152 129 129 130 156 197 210 180 236 242 207 224 209 179 220 207 240 214 239 204 228 186 179 187
355 347 334 322 309 308 306 287 286 294 302 307 334 348 32 304 253 170 29 31 118 136 168 166 178 172 215 200 177 221 246 220 238 208 228 227 246 254 259 246 232 170 189 195 197
0 353 342 330 317 308 293 281 285 290 290 305 335 358 106 258 161 105 51 120 105 141 156 159 206 193 203 210 203 203 254 258 260 240 236 236 254 179 265 313 226 218 222 210 203
359 355 346 333 321 306 289 283 282 284 287 301 342 100 216 248 169 103 88 128 96 146 152 183 143 165 155 217 216 254 296 292 231 218 237 176 270 237 239 210 209 218 222 216 213
356 353 347 335 324 311 306 298 281 287 292 290 329 138 254 219 145 149 116 110 72 75 111 135 131 122 155 139 13 293 330 277 187 173 188 170 274 265 254 204 237 235 225 220 215
353 351 347 340 330 321 309 289 275 279 251 296 178 194 263 142 201 169 153 165 121 94 72 95 83 119 103 171 296 332 251 237 297 206 164 204 274 262 197 224 250 240 232 226 223
349 348 345 340 337 333 321 262 73 113 90 106 49 293 239 220 165 150 113 138 144 130 111 121 74 192 134 175 250 224 238 248 246 213 217 239 263 275 261 255 260 253 247 232 226
346 345 343 341 336 344 28 69 23 280 205 209 202 221 166 131 128 179 157 130 124 137 205 156 212 227 227 213 231 238 239 255 248 230 260 254 267 279 283 252 260 261 257 246 235
344 341 341 339 335 351 60 73 107 184 297 244 241 265 240 179 223 201 153 174 172 211 154 195 244 242 193 186 205 219 254 267 282 235 218 293 285 282 281 270 250 259 255 250 213
340 339 340 337 332 43 64 97 143 148 271 281 204 207 209 166 229 209 173 166 196 205 205 218 228 135 178 186 211 235 233 250 263 318 246 310 283 278 282 270 266 249 250 244 208
340 340 340 332 73 350 55 71 72 158 309 252 214 224 132 156 247 149 185 165 193 228 199 243 220 202 208 235 198 256 227 229 256 314 272 4 293 266 273 292 296 309 218 233 198
339 340 338 353 308 30 323 14 90 71 299 153 179 138 139 186 141 209 225 134 221 200 169 243 193 197 215 228 179 229 139 162 161 230 314 221 248 271 281 280 223 23 74 17 197
336 336 336 356 7 11 346 80 88 7 247 225 156 183 180 211 219 124 156 70 71 214 240 249 227 205 215 167 180 145 110 66 71 130 263 228 211 268 216 213 191 115 62 35 57
333 332 330 314 322 339 32 36 308 212 332 206 224 190 215 213 214 192 185 195 211 238 248 252 225 206 174 158 155 173 131 277 270 216 246 168 206 248 244 230 261 277 119 48 51
329 326 328 304 327 355 77 101 232 248 260 326 142 188 223 181 231 190 206 245 229 204 222 253 269 194 188 207 199 183 189 206 249 240 267 158 244 256 255 109 83 93 102 77 63
328 338 358 345 339 2 116 212 226 218 266 277 276 241 245 243 224 206 226 234 230 191 206 209 257 180 180 155 177 174 208 198 263 113 286 246 268 275 193 210 160 151 135 112 84
330 330 297 333 348 69 187 240 245 225 301 240 239 217 243 222 212 202 224 203 233 204 164 233 282 207 160 130 70 193 160 167 193 252 256 263 266 248 233 228 202 195 182 144 110
3 332 307 339 97 96 233 235 270 279 247 236 246 258 240 248 229 226 255 247 213 191 194 180 219 255 147 202 197 176 204 207 212 202 252 269 264 209 229 225 208 195 175 157 138
350 310 344 359 276 207 232 235 315 306 12 278 249 243 251 247 260 247 246 225 182 170 197 211 205 257 247 222 215 205 215 197 225 243 228 251 264 215 235 222 189 179 165 152 144
308 272 331 12 240 235 274 287 273 278 265 254 268 229 243 258 276 238 244 237 199 189 213 183 231 262 273 288 299 225 207 213 228 250 249 251 259 170 214 205 185 173 168 166 156
310 313 313 32 39 341 344 316 294 330 299 281 285 289 257 256 241 269 256 260 222 220 235 173 223 224 245 246 133 210 220 220 225 244 258 249 265 264 233 228 201 188 172 168 157
347 350 13 338 341 339 340 311 311 323 345 317 262 33 2 296 278 256 276 299 252 273 257 206 253 267 276 276 280 272 265 254 239 247 251 262 255 261 252 229 213 182 162 157 150
30 354 347 308 329 331 327 316 334 352 344 323 356 335 328 304 303 299 329 325 292 272 268 241 264 266 265 267 265 264 254 253 251 254 255 256 256 256 267 170 172 175 164 158 149
4 349 328 300 333 328 349 9 334 331 269 292 302 302 300 296 300 289 273 265 254 270 284 259 245 246 257 265 265 256 247 248 248 250 249 251 258 305 262 90 141 150 145 130 118